Regional Weather Roundup
Issued by NWS State College, PA

Home | Current Version | Previous Version | Text Only | Print | Product List | Glossary On
Versions: 1 2 3 4 5 6 7 8 9 10 11 12 13 14 15 16 17 18 19 20 21 22 23 24 25 26 27 28 29 30 31 32 33 34 35 36 37 38 39 40 41 42 43 44 45 46 47 48 49 50
000
ASUS41 KCTP 201610
RWRCTP

REGIONAL WEATHER ROUNDUP
NATIONAL WEATHER SERVICE STATE COLLEGE PA
1100 AM EST THU NOV 20 2014

Note: "fair" indicates few or no clouds below 12,000 feet with no
significant weather and/or obstructions to visibility.

* = STATION THAT DOES NOT REPORT PRECIPITATION /E.G. RAIN...SNOW...ETC/
    THUNDER OR FOG.

PAZ002>004-007>009-013>016-020>023-029>032-201700-
WESTERN PENNSYLVANIA

CITY           SKY/WX    TMP DP  RH WIND       PRES   REMARKS
ERIE           LGT SNOW  24  17  74 SW18G29   29.92S VSB 3/4 WCI  10
MEADVILLE      MOSUNNY   24  10  55 SW15G28   29.91S WCI  11
FRANKLIN*      CLOUDY    21   9  58 SW16G24   29.95R WCI   7
NEW CASTLE       N/A     24  11  57 SW14G21   30.01S WCI  12
BEAVER COUNTY  CLOUDY    23  10  58 W15G22    30.01R WCI  10
BUTLER*        PTSUNNY   25   9  50 SW13G22   30.01S WCI  13
PITTSBURGH INT FLURRIES  24  10  55 W13       30.02R WCI  12
PITTSBURGH     CLOUDY    24   8  50 W18G26    30.01R WCI  10
INDIANA*       CLOUDY    27  16  63 W13G20    30.00S
LATROBE        PTSUNNY   28  16  59 W17G29    30.01R
WASHINGTON CO* CLOUDY    25  10  54 W20G25    30.04S WCI  11
$$

PAZ004>006-010>012-017>019-024>028-033>037-041-042-045-046-049>053-201700-
CENTRAL PENNSYLVANIA

CITY           SKY/WX    TMP DP  RH WIND       PRES   REMARKS
BRADFORD       CLOUDY    22   9  57 W13G28    29.83S WCI  10
DUBOIS         CLOUDY    24  10  55 W17G26    29.90S WCI  11
CLEARFIELD     CLOUDY    25  11  55 W18G26    29.93R WCI  11
JOHNSTOWN      LGT SNOW  24  16  71 W16G30    29.88S WCI  11
ALTOONA        CLOUDY    29  20  69 W14G22    29.94R
STATE COLLEGE  CLOUDY    30  16  55 W18       29.95R
WILLIAMSPORT   CLOUDY    34  16  47 W21G29    29.93S
SELINSGROVE    MOSUNNY   39  16  39 SW13G26   29.94S
FT INDIANTOWN  PTSUNNY   40  21  45 VRB7      29.94F
CAPITAL CITY   PTSUNNY   39  20  46 W5        29.95F
HARRISBURG     CLOUDY    38  21  50 CALM      29.95F
YORK           MOSUNNY   42  23  46 W8        29.94F
$$

PAZ038>040-043-044-047-048-054-055-060>062-067>071-201700-
EASTERN PENNSYLVANIA

CITY           SKY/WX    TMP DP  RH WIND       PRES   REMARKS
SCRANTON       PTSUNNY   37  16  42 W17G29    29.87F
MOUNT POCONO   MOSUNNY   34  16  47 W29G40    29.82S
ALLENTOWN      PTSUNNY   40  19  43 SW12      29.93F
QUAKERTOWN*    PTSUNNY   36  18  48 SW6       29.94F
READING        PTSUNNY   41  19  41 SW7       29.94F
LANCASTER      MOSUNNY   39  20  46 W9        29.95F
COATESVILLE    PTSUNNY   41  23  48 W8        29.94F
POTTSTOWN      MOSUNNY   40  20  44 W7        29.95F
BLUE BELL      PTSUNNY   43  21  42 W10       29.94F
DOYLESTOWN     CLOUDY    38  19  46 SW7       29.93F
WILLOW GROVE   NOT AVBL
NORTH PHILA    CLOUDY    43  21  41 W16       29.97F
PHILADELPHIA   CLOUDY    42  23  46 SW14      29.97F
$$


USA.gov is the U.S. government's official web portal to all federal, state and local government web resources and services.